DW0664 Weather Reports


Display with metric or nautical units.
time (UTC)temp
F
wind
direction
speed
MPH
gust
MPH
rain 1hr
in
rain 24hr
in
rain mn
in
humidity
%
barometer
mb
20260831053056 83 68 1.0 2.0 0.00 0.00 0.00 76 1017.8
20260831052555 83 68 0.0 2.0 0.00 0.00 0.00 75 1017.9
20260831052055 83 119 1.0 2.0 0.00 0.00 0.00 75 1017.7
20260831051553 83 81 0.0 2.0 0.00 0.00 0.00 74 1018.0
20260831051053 83 79 0.0 1.0 0.00 0.00 0.00 74 1017.8
20260831050553 84 98 0.0 2.0 0.00 0.00 0.00 74 1017.7
20260831050051 84 79 0.0 2.0 0.00 0.00 0.00 73 1017.7
20260831045551 84 66 0.0 1.0 0.00 0.00 0.00 73 1017.7
20260831045051 84 92 1.0 1.0 0.00 0.00 0.00 73 1017.8
20260831044547 84 62 0.0 1.0 0.00 0.00 0.00 73 1017.5
20260831044042 84 65 0.0 1.0 0.00 0.00 0.00 72 1017.7
20260831043537 84 79 1.0 1.0 0.00 0.00 0.00 72 1017.5
20260831043032 85 135 1.0 3.0 0.00 0.00 0.00 71 1017.6
20260831042532 85 106 1.0 3.0 0.00 0.00 0.00 71 1017.6
20260831042032 85 77 0.0 2.0 0.00 0.00 0.00 70 1017.4
20260831041522 85 86 0.0 2.0 0.00 0.00 0.00 70 1017.6
20260831041021 85 74 1.0 7.0 0.00 0.00 0.00 69 1017.4
20260831040516 85 71 2.0 4.0 0.00 0.00 0.00 69 1017.7
20260831040015 85 100 1.0 1.0 0.00 0.00 0.00 69 1017.2
20260831035513 86 82 0.0 2.0 0.00 0.00 0.00 68 1017.4
20260831035009 86 93 1.0 3.0 0.00 0.00 0.00 67 1017.4
20260831034503 86 155 1.0 1.0 0.00 0.00 0.00 66 1017.3
20260831033958 86 95 1.0 2.0 0.00 0.00 0.00 65 1017.3
20260831033454 86 63 1.0 2.0 0.00 0.00 0.00 65 1017.0
20260831032949 86 87 2.0 2.0 0.00 0.00 0.00 64 1016.9
20260831032443 87 76 1.0 2.0 0.00 0.00 0.00 63 1017.1
20260831031938 87 126 1.0 2.0 0.00 0.00 0.00 62 1017.1
20260831031433 87 70 0.0 4.0 0.00 0.00 0.00 61 1016.9
20260831030932 87 75 1.0 3.0 0.00 0.00 0.00 60 1016.9
20260831030432 87 75 1.0 2.0 0.00 0.00 0.00 59 1016.7
20260831025930 87 69 0.0 1.0 0.00 0.00 0.00 57 1016.7
20260831025429 87 68 1.0 1.0 0.00 0.00 0.00 56 1016.6
20260831024925 88 66 0.0 0.0 0.00 0.00 0.00 55 1016.5
20260831024424 88 64 2.0 2.0 0.00 0.00 0.00 54 1016.5
20260831023919 89 78 1.0 3.0 0.00 0.00 0.00 53 1016.3
20260831023418 89 69 0.0 2.0 0.00 0.00 0.00 52 1016.6
20260831022913 89 64 0.0 3.0 0.00 0.00 0.00 51 1016.2
20260831022412 89 86 1.0 2.0 0.00 0.00 0.00 50 1016.2
20260831021907 90 125 1.0 2.0 0.00 0.00 0.00 49 1016.3
20260831021406 90 114 2.0 2.0 0.00 0.00 0.00 49 1015.8
20260831020902 89 73 0.0 1.0 0.00 0.00 0.00 50 1015.9
20260831020401 90 65 0.0 1.0 0.00 0.00 0.00 50 1015.9
20260831015856 90 69 0.0 3.0 0.00 0.00 0.00 50 1015.7
20260831015353 90 63 0.0 1.0 0.00 0.00 0.00 50 1015.7
20260831014852 90 73 0.0 0.0 0.00 0.00 0.00 49 1015.7
20260831014347 90 88 0.0 1.0 0.00 0.00 0.00 48 1015.5
20260831013843 90 106 2.0 2.0 0.00 0.00 0.00 49 1015.5
20260831013338 90 66 0.0 0.0 0.00 0.00 0.00 49 1015.6
20260831012832 90 70 0.0 1.0 0.00 0.00 0.00 49 1015.7
20260831012328 91 69 0.0 0.0 0.00 0.00 0.00 49 1015.5
20260831011827 91 75 0.0 0.0 0.00 0.00 0.00 49 1015.5
20260831011322 91 64 1.0 1.0 0.00 0.00 0.00 47 1015.7
20260831010818 92 85 0.0 1.0 0.00 0.00 0.00 47 1015.7
20260831010318 92 99 2.0 2.0 0.00 0.00 0.00 47 1015.6
20260831005814 92 54 0.0 3.0 0.00 0.00 0.00 47 1015.6
20260831005309 93 66 0.0 1.0 0.00 0.00 0.00 47 1015.5
20260831004804 93 72 0.0 3.0 0.00 0.00 0.00 46 1015.4
20260831004300 93 89 2.0 7.0 0.00 0.00 0.00 45 1015.3
20260831003755 93 109 1.0 3.0 0.00 0.00 0.00 45 1015.3
20260831003251 93 100 1.0 2.0 0.00 0.00 0.00 45 1015.3
20260831002751 93 96 2.0 4.0 0.00 0.00 0.00 45 1015.2
20260831002245 94 74 1.0 2.0 0.00 0.00 0.00 44 1015.4
20260831001741 94 74 2.0 3.0 0.00 0.00 0.00 43 1015.2
20260831001236 94 40 1.0 2.0 0.00 0.00 0.00 43 1015.3
20260831000733 95 147 1.0 2.0 0.00 0.00 0.00 42 1015.2
20260831000228 95 77 0.0 1.0 0.00 0.00 0.00 42 1015.5
20260830235726 95 115 0.0 2.0 0.00 0.00 0.00 42 1015.3
20260830235221 95 134 2.0 4.0 0.00 0.00 0.00 40 1015.2
20260830234721 96 76 3.0 7.0 0.00 0.00 0.00 41 1015.3
20260830234218 96 153 4.0 6.0 0.00 0.00 0.00 41 1015.3
20260830233713 96 35 2.0 2.0 0.00 0.00 0.00 41 1015.2
20260830233208 96 64 0.0 3.0 0.00 0.00 0.00 42 1015.4
20260830232704 97 55 0.0 2.0 0.00 0.00 0.00 41 1015.3
20260830232159 97 49 1.0 1.0 0.00 0.00 0.00 39 1015.4
20260830231656 98 312 4.0 6.0 0.00 0.00 0.00 38 1015.2
20260830231155 99 100 1.0 2.0 0.00 0.00 0.00 38 1015.3
20260830230650 99 69 0.0 1.0 0.00 0.00 0.00 38 1015.2
20260830230145 99 59 1.0 3.0 0.00 0.00 0.00 38 1015.3
20260830225640 98 38 1.0 2.0 0.00 0.00 0.00 38 1015.3
20260830225135 98 143 3.0 3.0 0.00 0.00 0.00 38 1015.4
20260830224633 98 118 2.0 6.0 0.00 0.00 0.00 38 1015.5
20260830224129 99 84 3.0 3.0 0.00 0.00 0.00 37 1015.7
20260830223626 99 66 1.0 4.0 0.00 0.00 0.00 36 1015.6
20260830223126 99 64 0.0 2.0 0.00 0.00 0.00 36 1015.5
20260830222626 99 80 1.0 6.0 0.00 0.00 0.00 35 1015.6
20260830222122 99 87 0.0 3.0 0.00 0.00 0.00 35 1015.4
20260830221617 99 151 3.0 4.0 0.00 0.00 0.00 36 1015.6
20260830221113 99 82 1.0 2.0 0.00 0.00 0.00 37 1015.5
20260830220609 99 129 2.0 3.0 0.00 0.00 0.00 37 1015.7
20260830220108 99 96 2.0 2.0 0.00 0.00 0.00 35 1015.7
20260830215607 99 66 1.0 3.0 0.00 0.00 0.00 35 1015.8
20260830215101 100 94 1.0 2.0 0.00 0.00 0.00 36 1015.8
20260830214556 100 108 3.0 4.0 0.00 0.00 0.00 35 1015.8
20260830214051 99 88 4.0 7.0 0.00 0.00 0.00 35 1016.0
20260830213551 98 107 1.0 2.0 0.00 0.00 0.00 36 1015.9
20260830213046 97 76 1.0 2.0 0.00 0.00 0.00 38 1016.0
20260830212542 98 64 1.0 6.0 0.00 0.00 0.00 38 1016.0
20260830212037 99 63 1.0 4.0 0.00 0.00 0.00 39 1016.1
20260830211532 100 333 3.0 3.0 0.00 0.00 0.00 38 1016.2
20260830211031 100 77 1.0 3.0 0.00 0.00 0.00 37 1016.1
20260830210526 99 64 1.0 2.0 0.00 0.00 0.00 38 1016.1
20260830210020 100 55 0.0 2.0 0.00 0.00 0.00 37 1016.2
20260830205518 100 63 2.0 4.0 0.00 0.00 0.00 39 1016.3
20260830205014 99 112 2.0 4.0 0.00 0.00 0.00 38 1016.4
20260830204512 98 154 2.0 6.0 0.00 0.00 0.00 41 1016.6
20260830204007 99 106 1.0 2.0 0.00 0.00 0.00 40 1016.6
20260830203503 101 49 1.0 4.0 0.00 0.00 0.00 39 1016.7
20260830203003 101 85 2.0 6.0 0.00 0.00 0.00 39 1016.9
20260830202457 101 111 2.0 3.0 0.00 0.00 0.00 38 1016.9
20260830201954 101 127 2.0 3.0 0.00 0.00 0.00 37 1016.9
20260830201452 102 166 5.0 9.0 0.00 0.00 0.00 37 1017.1
20260830200948 103 74 1.0 4.0 0.00 0.00 0.00 37 1017.0
20260830200443 102 60 3.0 4.0 0.00 0.00 0.00 35 1017.4
20260830195942 101 52 1.0 2.0 0.00 0.00 0.00 37 1017.3
20260830195438 101 54 0.0 2.0 0.00 0.00 0.00 38 1017.5
20260830194936 99 64 0.0 2.0 0.00 0.00 0.00 41 1017.5
20260830194435 98 84 2.0 2.0 0.00 0.00 0.00 42 1017.5
20260830193935 98 68 0.0 2.0 0.00 0.00 0.00 42 1017.5
20260830193434 100 90 3.0 4.0 0.00 0.00 0.00 40 1017.7
20260830192930 100 79 2.0 2.0 0.00 0.00 0.00 39 1017.7
20260830192425 100 69 1.0 3.0 0.00 0.00 0.00 39 1017.6
20260830191920 102 101 2.0 2.0 0.00 0.00 0.00 39 1018.0
20260830191420 101 234 1.0 2.0 0.00 0.00 0.00 39 1017.9
20260830190916 100 117 1.0 2.0 0.00 0.00 0.00 41 1018.2
20260830190411 98 76 1.0 4.0 0.00 0.00 0.00 42 1018.1
20260830185910 100 53 2.0 3.0 0.00 0.00 0.00 40 1018.4
20260830185405 98 112 0.0 3.0 0.00 0.00 0.00 44 1018.1
20260830184900 98 103 2.0 3.0 0.00 0.00 0.00 45 1018.4
20260830184359 98 94 4.0 6.0 0.00 0.00 0.00 45 1018.5
20260830183859 99 54 2.0 3.0 0.00 0.00 0.00 42 1018.4
20260830183354 98 147 1.0 3.0 0.00 0.00 0.00 44 1018.7
20260830182850 97 76 1.0 3.0 0.00 0.00 0.00 44 1018.7
20260830182345 98 248 2.0 4.0 0.00 0.00 0.00 43 1018.8
20260830181841 98 77 1.0 2.0 0.00 0.00 0.00 44 1019.0
20260830181336 99 64 1.0 1.0 0.00 0.00 0.00 45 1019.0
20260830180831 97 129 0.0 1.0 0.00 0.00 0.00 46 1019.0
20260830180330 97 68 0.0 2.0 0.00 0.00 0.00 47 1019.2
20260830175830 97 140 0.0 1.0 0.00 0.00 0.00 48 1019.3
20260830175324 96 104 2.0 2.0 0.00 0.00 0.00 47 1019.3
20260830174820 97 349 1.0 1.0 0.00 0.00 0.00 47 1019.4
20260830174315 96 70 1.0 4.0 0.00 0.00 0.00 48 1019.4
20260830173815 96 86 2.0 4.0 0.00 0.00 0.00 48 1019.5
20260830173311 95 69 2.0 2.0 0.00 0.00 0.00 48 1019.7
20260830172807 96 89 1.0 2.0 0.00 0.00 0.00 49 1019.6
20260830172306 95 55 0.0 3.0 0.00 0.00 0.00 50 1019.7
20260830171759 96 19 1.0 2.0 0.00 0.00 0.00 50 1019.8
20260830171254 95 62 0.0 1.0 0.00 0.00 0.00 50 1019.9
20260830170748 94 39 0.0 2.0 0.00 0.00 0.00 50 1019.8
20260830170248 94 240 2.0 3.0 0.00 0.00 0.00 52 1020.0
20260830165747 94 349 2.0 3.0 0.00 0.00 0.00 52 1020.0
20260830165243 94 357 2.0 2.0 0.00 0.00 0.00 52 1020.1
20260830164739 93 42 2.0 3.0 0.00 0.00 0.00 56 1020.1
20260830164234 94 79 1.0 2.0 0.00 0.00 0.00 56 1020.0
20260830163731 93 343 2.0 2.0 0.00 0.00 0.00 56 1020.2
20260830163227 93 17 1.0 2.0 0.00 0.00 0.00 58 1020.3
20260830162721 92 211 1.0 4.0 0.00 0.00 0.00 60 1020.1
20260830162217 92 76 1.0 2.0 0.00 0.00 0.00 58 1020.2
20260830161712 92 117 0.0 1.0 0.00 0.00 0.00 59 1020.1
20260830161206 91 57 0.0 2.0 0.00 0.00 0.00 62 1020.1
20260830160703 92 60 1.0 1.0 0.00 0.00 0.00 61 1020.2
20260830160202 92 78 0.0 2.0 0.00 0.00 0.00 60 1020.1
20260830155659 91 102 1.0 2.0 0.00 0.00 0.00 62 1020.1
20260830155155 90 57 0.0 1.0 0.00 0.00 0.00 65 1020.2
20260830154650 90 49 1.0 2.0 0.00 0.00 0.00 66 1020.1
20260830154145 89 320 1.0 2.0 0.00 0.00 0.00 67 1020.1
20260830153642 91 29 2.0 2.0 0.00 0.00 0.00 65 1020.2
20260830153142 90 4 2.0 2.0 0.00 0.00 0.00 65 1020.1
20260830152641 90 329 2.0 3.0 0.00 0.00 0.00 66 1020.3
20260830152140 89 109 0.0 1.0 0.00 0.00 0.00 69 1020.0
20260830151636 87 105 2.0 3.0 0.00 0.00 0.00 71 1020.1
20260830151135 87 11 1.0 3.0 0.00 0.00 0.00 72 1020.1
20260830150630 87 268 1.0 4.0 0.00 0.00 0.00 73 1020.0
20260830150125 86 74 1.0 3.0 0.00 0.00 0.00 77 1020.1
20260830145624 86 60 0.0 1.0 0.00 0.00 0.00 77 1020.1
20260830145119 85 67 0.0 1.0 0.00 0.00 0.00 78 1019.9
20260830144615 85 55 0.0 1.0 0.00 0.00 0.00 78 1019.9
20260830144110 85 54 0.0 2.0 0.00 0.00 0.00 80 1019.8
20260830143606 85 276 0.0 1.0 0.00 0.00 0.00 79 1020.0
20260830143104 87 262 2.0 2.0 0.00 0.00 0.00 76 1020.0
20260830142600 87 19 1.0 1.0 0.00 0.00 0.00 77 1020.0
20260830142054 86 23 1.0 1.0 0.00 0.00 0.00 78 1020.0
20260830141550 86 63 0.0 0.0 0.00 0.00 0.00 79 1020.2
20260830141050 85 48 1.0 1.0 0.00 0.00 0.00 79 1020.0
20260830140545 84 5 1.0 1.0 0.00 0.00 0.00 81 1020.1
20260830140041 83 76 0.0 1.0 0.00 0.00 0.00 85 1020.0
20260830135535 82 47 0.0 1.0 0.00 0.00 0.00 85 1020.2
20260830135030 82 66 0.0 2.0 0.00 0.00 0.00 87 1019.8
20260830134526 81 57 0.0 1.0 0.00 0.00 0.00 88 1019.9
20260830134021 80 73 0.0 1.0 0.00 0.00 0.00 90 1020.0
20260830133517 80 59 0.0 1.0 0.00 0.00 0.00 90 1020.0
20260830133012 80 55 0.0 1.0 0.00 0.00 0.00 91 1019.9
20260830132508 79 101 0.0 0.0 0.00 0.00 0.00 92 1019.7
20260830132008 79 87 2.0 2.0 0.00 0.00 0.00 92 1019.7
20260830131507 78 41 0.0 1.0 0.00 0.00 0.00 94 1019.6
20260830131002 78 2 1.0 1.0 0.00 0.00 0.00 94 1019.7
20260830130457 78 58 0.0 0.0 0.00 0.00 0.00 95 1019.6
20260830125956 78 59 0.0 0.0 0.00 0.00 0.00 95 1019.6
20260830125451 77 61 0.0 1.0 0.00 0.00 0.00 95 1019.5
20260830124950 77 71 0.0 1.0 0.00 0.00 0.00 96 1019.5
20260830124445 77 81 1.0 2.0 0.00 0.00 0.00 96 1019.5
20260830123941 77 61 0.0 1.0 0.00 0.00 0.00 96 1019.3
20260830123437 77 62 0.0 1.0 0.00 0.00 0.00 96 1019.4
20260830122935 77 62 0.0 0.0 0.00 0.00 0.00 96 1019.2
20260830122435 77 60 0.0 0.0 0.00 0.00 0.00 97 1019.2
20260830121930 76 59 0.0 0.0 0.00 0.00 0.00 97 1019.2
20260830121425 76 54 0.0 1.0 0.00 0.00 0.00 97 1019.0
20260830120920 76 60 0.0 0.0 0.00 0.00 0.00 97 1019.1
20260830120416 76 61 0.0 0.0 0.00 0.00 0.00 96 1019.0
20260830115912 76 56 0.0 0.0 0.00 0.00 0.00 96 1019.0
20260830115408 76 55 0.0 0.0 0.00 0.00 0.00 96 1018.9
20260830114903 76 57 0.0 0.0 0.00 0.00 0.00 96 1019.0
20260830114359 76 61 0.0 0.0 0.00 0.00 0.00 96 1019.1
20260830113859 76 55 0.0 0.0 0.00 0.00 0.00 96 1019.0
20260830113354 76 58 0.0 0.0 0.00 0.00 0.00 96 1018.9
20260830112850 76 70 0.0 0.0 0.00 0.00 0.00 96 1018.6
20260830112346 76 62 0.0 0.0 0.00 0.00 0.00 95 1018.6
20260830111841 76 56 0.0 0.0 0.00 0.00 0.00 95 1018.6
20260830111337 76 56 0.0 0.0 0.00 0.00 0.00 95 1018.6
20260830110837 76 56 0.0 0.0 0.00 0.00 0.00 95 1018.5
20260830110333 76 56 0.0 0.0 0.00 0.00 0.00 95 1018.7
20260830105832 76 55 0.0 0.0 0.00 0.00 0.00 94 1018.6
20260830105329 76 55 0.0 0.0 0.00 0.00 0.00 94 1018.5
20260830104825 77 56 0.0 0.0 0.00 0.00 0.00 94 1018.3
20260830104322 76 51 0.0 0.0 0.00 0.00 0.00 94 1018.5
20260830103820 76 57 0.0 0.0 0.00 0.00 0.00 94 1018.4
20260830103317 77 55 0.0 0.0 0.00 0.00 0.00 93 1018.3
20260830102814 77 56 0.0 0.0 0.00 0.00 0.00 93 1018.3
20260830102310 77 57 0.0 1.0 0.00 0.00 0.00 93 1018.3
20260830101806 77 58 0.0 0.0 0.00 0.00 0.00 93 1018.4
20260830101301 77 53 0.0 0.0 0.00 0.00 0.00 93 1018.3
20260830100800 77 54 0.0 0.0 0.00 0.00 0.00 93 1018.2
20260830100255 77 58 0.0 0.0 0.00 0.00 0.00 93 1018.3
20260830095754 77 59 0.0 0.0 0.00 0.00 0.00 92 1018.3
20260830095250 78 60 0.0 0.0 0.00 0.00 0.00 92 1018.2
20260830094746 78 61 0.0 1.0 0.00 0.00 0.00 92 1018.3
20260830094242 78 58 0.0 0.0 0.00 0.00 0.00 92 1018.1
20260830093737 78 84 1.0 1.0 0.00 0.00 0.00 92 1018.1
20260830093233 78 61 0.0 0.0 0.00 0.00 0.00 91 1018.2
20260830092732 78 59 0.0 1.0 0.00 0.00 0.00 91 1018.2
20260830092230 78 56 0.0 1.0 0.00 0.00 0.00 91 1018.1
20260830091725 78 46 1.0 1.0 0.00 0.00 0.00 91 1018.0
20260830091225 78 68 0.0 1.0 0.00 0.00 0.00 90 1018.0
20260830090724 78 85 1.0 2.0 0.00 0.00 0.00 90 1018.2
20260830090220 78 59 0.0 1.0 0.00 0.00 0.00 90 1017.9
20260830085719 78 50 0.0 1.0 0.00 0.00 0.00 90 1018.0
20260830085215 78 56 0.0 1.0 0.00 0.00 0.00 90 1018.0
20260830084710 79 70 0.0 1.0 0.00 0.00 0.00 90 1018.0
20260830084205 79 358 1.0 2.0 0.00 0.00 0.00 89 1017.8
20260830083700 79 60 0.0 1.0 0.00 0.00 0.00 89 1018.0
20260830083156 79 63 0.0 1.0 0.00 0.00 0.00 89 1017.9
20260830082655 79 56 1.0 2.0 0.00 0.00 0.00 89 1018.0
20260830082151 79 61 1.0 2.0 0.00 0.00 0.00 88 1018.0
20260830081647 79 59 0.0 1.0 0.00 0.00 0.00 88 1018.0
20260830081146 79 68 0.0 0.0 0.00 0.00 0.00 88 1018.1
20260830080641 79 55 0.0 1.0 0.00 0.00 0.00 88 1018.0
20260830080136 79 52 0.0 0.0 0.00 0.00 0.00 87 1018.0
20260830075636 79 62 1.0 1.0 0.00 0.00 0.00 87 1018.1
20260830075131 79 31 0.0 2.0 0.00 0.00 0.00 87 1018.1
20260830074627 80 61 0.0 1.0 0.00 0.00 0.00 87 1018.2
20260830074123 80 37 1.0 1.0 0.00 0.00 0.00 86 1018.0
20260830073619 80 59 0.0 1.0 0.00 0.00 0.00 86 1018.1
20260830073114 80 58 0.0 1.0 0.00 0.00 0.00 86 1018.1
20260830072609 80 40 0.0 1.0 0.00 0.00 0.00 86 1018.1
20260830072109 80 59 0.0 1.0 0.00 0.00 0.00 85 1018.4
20260830071605 80 57 0.0 1.0 0.00 0.00 0.00 85 1018.4
20260830071102 80 45 0.0 1.0 0.00 0.00 0.00 85 1018.3
20260830070557 80 44 0.0 1.0 0.00 0.00 0.00 85 1018.4
20260830070058 81 57 0.0 1.0 0.00 0.00 0.00 84 1018.2
20260830065556 81 59 0.0 2.0 0.00 0.00 0.00 84 1018.3
20260830065055 81 337 1.0 1.0 0.00 0.00 0.00 84 1018.1
20260830064550 81 45 1.0 1.0 0.00 0.00 0.00 83 1018.2
20260830064045 81 56 0.0 1.0 0.00 0.00 0.00 83 1018.3
20260830063545 81 68 0.0 0.0 0.00 0.00 0.00 83 1018.1
20260830063045 81 71 0.0 1.0 0.00 0.00 0.00 83 1018.3
20260830062544 81 36 1.0 1.0 0.00 0.00 0.00 82 1018.3
20260830062039 81 44 1.0 2.0 0.00 0.00 0.00 82 1018.3
20260830061533 81 79 0.0 1.0 0.00 0.00 0.00 82 1018.3
20260830061030 82 91 0.0 0.0 0.00 0.00 0.00 82 1018.1
20260830060526 82 62 0.0 1.0 0.00 0.00 0.00 81 1018.1
20260830060023 82 69 1.0 1.0 0.00 0.00 0.00 81 1018.1
20260830055517 82 64 1.0 1.0 0.00 0.00 0.00 81 1018.4
20260830055014 82 40 0.0 1.0 0.00 0.00 0.00 80 1018.2
20260830054509 82 91 0.0 1.0 0.00 0.00 0.00 80 1018.2
20260830054004 82 69 0.0 2.0 0.00 0.00 0.00 80 1018.1